[[[{"header":{"parameterUnit":"kt","parameterCategory":2,"dx":1,"dy":1,"la1":30.253999710083008,"la2":30.299108505249023,"lo1":-89.0895004272461,"lo2":-89.04439544677734,"nx":28,"ny":28,"refTime":"2022-10-20T21:00:00:Z","depth":0,"parameterNumber":1,"parameterNumberName":"U-component_of_WINDS"},"data":[-3.1775,-3.1829,-3.1832,-3.1896,-3.191,-3.1955,-3.1972,-3.1995,-3.2014,-3.2068,-3.21,-3.211,-3.2132,-3.2172,-3.2207,-3.2211,-3.2226,-3.2243,-3.2245,-3.2165,-3.2154,-3.2144,-3.213,-3.2246,-3.2246,-3.2327,-3.2327,-3.2328,-3.1718,-3.1731,-3.1766,-3.1802,-3.1832,-3.1817,-3.1845,-3.1871,-3.1912,-3.1936,-3.1967,-3.2016,-3.2055,-3.2071,-3.211,-3.2136,-3.2132,-3.2146,-3.2144,-3.2148,-3.2063,-3.2049,-3.2149,-3.2149,-3.2149,-3.2149,-3.2149,-3.2149,-3.1614,-3.1646,-3.1669,-3.1706,-3.1725,-3.175,-3.1781,-3.1792,-3.1826,-3.1866,-3.1863,-3.191,-3.1935,-3.1983,-3.2,-3.2037,-3.2022,-3.2039,-3.2043,-3.2047,-3.2051,-3.1936,-3.2044,-3.2043,-3.2043,-3.2043,-3.2043,0,-3.1539,-3.1539,-3.1572,-3.1606,-3.1634,-3.1661,-3.1686,-3.1706,-3.1708,-3.1737,-3.1778,-3.1803,-3.1852,-3.1892,-3.1929,-3.1943,-3.1932,-3.1931,-3.1943,-3.1944,-3.1941,-3.1944,-3.1805,-3.1928,-3.1927,-3.1926,-3.1925,-3.1925,-3.1435,-3.1472,-3.1497,-3.152,-3.1534,-3.1571,-3.1594,-3.1593,-3.1617,-3.1649,-3.1678,-3.1718,-3.1749,-3.1816,-3.1829,-3.1866,-3.186,-3.1907,-3.1866,-3.1866,-3.1861,-3.1859,-3.1863,-3.1915,-3.1916,-3.1917,-3.1918,0,-3.1376,-3.138,-3.1438,-3.146,-3.1466,-3.1505,-3.1524,-3.1557,-3.1563,-3.1609,-3.162,-3.163,-3.1671,-3.1676,-3.1724,-3.1725,-3.1792,-3.1786,-3.1783,-3.1782,-3.1824,-3.182,-3.196,-3.1979,-3.1859,-3.186,-3.1861,0,-3.1289,-3.1337,-3.1341,-3.1374,-3.1429,-3.1426,-3.148,-3.149,-3.1511,-3.1547,-3.1534,-3.1568,-3.1568,-3.1604,-3.1605,-3.1661,-3.167,-3.1674,-3.1674,-3.1675,-3.1674,-3.1688,-3.1682,-3.1672,-3.1671,-3.167,-3.167,0,-3.1196,-3.1254,-3.1309,-3.1323,-3.135,-3.1376,-3.1389,-3.1411,-3.1434,-3.1464,-3.1478,-3.1514,-3.1533,-3.1561,-3.1563,-3.1535,-3.1631,-3.1592,-3.1635,-3.1635,-3.1655,-3.1654,-3.1777,-3.1669,-3.1669,-3.1668,-3.1668,0,-3.1126,-3.1154,-3.1233,-3.1255,-3.127,-3.1307,-3.134,-3.1372,-3.1397,-3.14,-3.1423,-3.1415,-3.1463,-3.1425,-3.1491,-3.1454,-3.1474,-3.1483,-3.1486,-3.149,-3.1447,-3.1515,-3.1632,-3.1645,-3.1495,-3.1493,-3.1492,0,-3.1019,-3.1098,-3.1095,-3.117,-3.1207,-3.1188,-3.1229,-3.1251,-3.1258,-3.1291,-3.1299,-3.1337,-3.1309,-3.1322,-3.1354,-3.1364,-3.1412,-3.1358,-3.1407,-3.1409,-3.14,-3.1508,-3.1524,-3.1606,-3.1474,-3.1475,-3.1477,0,-3.0936,-3.0967,-3.098,-3.0996,-3.1023,-3.1054,-3.11,-3.1136,-3.1159,-3.1184,-3.1223,-3.1277,-3.1258,-3.1278,-3.1275,-3.1308,-3.138,-3.1283,-3.1284,-3.1301,-3.1464,-3.1479,-3.1493,-3.137,-3.1372,-3.1374,-3.1462,0,-3.0829,-3.0869,-3.0905,-3.0939,-3.0963,-3.101,-3.1012,-3.1038,-3.1031,-3.1037,-3.1094,-3.1113,-3.115,-3.1166,-3.116,-3.1235,-3.1223,-3.1203,-3.1165,-3.1236,-3.1265,-3.1277,-3.1122,-3.112,-3.112,-3.1119,0,0,-3.0726,-3.0782,-3.0776,-3.082,-3.084,-3.0819,-3.0869,-3.0886,-3.0921,-3.0936,-3.0915,-3.0993,-3.1008,-3.1078,-3.11,-3.1115,-3.1129,-3.1103,-3.1202,-3.1211,-3.122,-3.1251,-3.1263,-3.1117,-3.1117,-3.1117,-3.1116,0,-3.0687,-3.0701,-3.075,-3.0767,-3.0792,-3.0795,-3.0807,-3.0828,-3.0834,-3.0889,-3.0872,-3.0906,-3.0968,-3.0987,-3.1005,-3.1096,-3.108,-3.1107,-3.1155,-3.1193,-3.1203,-3.1213,-3.1245,-3.1257,-3.1114,-3.1114,-3.1114,0,-3.0605,-3.062,-3.0643,-3.0687,-3.0703,-3.0741,-3.0702,-3.0744,-3.0773,-3.0748,-3.0803,-3.0814,-3.0839,-3.0904,-3.0933,-3.0915,-3.1036,-3.0998,-3.1003,-3.1006,-3.1044,-3.1056,-3.1068,-3.0919,-3.0919,-3.0918,0,0,-3.0571,-3.0607,-3.0623,-3.0678,-3.069,-3.0695,-3.0715,-3.071,-3.0733,-3.0742,-3.0754,-3.0777,-3.0813,-3.0837,-3.087,-3.0941,-3.0946,-3.0973,-3.0983,-3.099,-3.0997,-3.1036,-3.1049,-3.0915,-3.0915,-3.0915,0,0,-3.0555,-3.0574,-3.0563,-3.0628,-3.065,-3.0668,-3.0703,-3.069,-3.072,-3.0714,-3.0708,-3.0714,-3.0775,-3.0785,-3.075,-3.0857,-3.0819,-3.0828,-3.0847,-3.0859,-3.0868,-3.0864,-3.0713,0,0,0,0,0,-3.0515,-3.0572,-3.0561,-3.0572,-3.0627,-3.0674,-3.0681,-3.0677,-3.0651,-3.0678,-3.0687,-3.0668,-3.0765,-3.0734,-3.0745,-3.0784,-3.0882,-3.0888,-3.0893,-3.0935,-3.0947,-3.0957,0,0,0,0,0,0,-3.052,-3.0533,-3.056,-3.0581,-3.0593,-3.0672,-3.0627,-3.0627,-3.0647,-3.0643,-3.0667,-3.0669,-3.0667,-3.0728,-3.0738,-3.0775,-3.0709,-3.0884,-3.0889,-3.0894,-3.0939,-3.0949,-3.0957,0,0,0,0,0,-3.0523,-3.0534,-3.0622,-3.058,-3.0591,-3.0599,-3.0624,-3.0624,-3.064,-3.0653,-3.0654,-3.0635,-3.0668,-3.0676,-3.0734,-3.0771,-3.0702,-3.0706,-3.0887,-3.0891,-3.0895,-3.0944,0,0,0,0,0,0,-3.0525,-3.0534,-3.0624,-3.0627,-3.0558,-3.0594,-3.0599,-3.0622,-3.0648,-3.065,-3.062,-3.0616,-3.0669,-3.0676,-3.0682,-3.0769,-3.0696,-3.07,-3.0702,-3.089,-3.0894,-3.0896,0,0,0,0,0,0,-3.0529,-3.0537,-3.0625,-3.0597,-3.0597,-3.059,-3.0595,-3.0643,-3.0649,-3.0614,-3.0612,-3.0618,-3.066,-3.0676,-3.0681,-3.0756,-3.0691,-3.0695,-3.0698,-3.0699,-3.0893,-3.0895,0,0,0,0,0,0,-3.0532,-3.054,-3.0597,-3.0597,-3.0596,-3.0631,-3.0633,-3.0689,-3.0625,-3.0613,-3.0619,-3.0616,-3.066,-3.0665,-3.068,-3.0753,-3.0755,-3.0691,-3.0694,-3.0696,-3.0697,0,0,0,0,0,0,0,-3.0535,-3.0486,-3.0605,-3.0596,-3.0595,-3.0656,-3.0656,-3.0657,-3.0624,-3.0622,-3.0619,-3.0617,-3.067,-3.0674,-3.0678,-3.0751,0,0,-3.0691,-3.0693,0,0,0,0,0,0,0,0,-3.0483,-3.0485,-3.0605,-3.0606,-3.0607,-3.0656,-3.0656,-3.0657,-3.0624,-3.0622,-3.062,-3.0618,-3.0671,-3.0674,-3.0678,0,0,0,0,0,0,0,0,0,0,0,0,0,0,0,-3.0605,-3.0606,0,-3.0656,-3.0656,-3.0657,-3.0623,-3.0622,-3.062,-3.0619,-3.0672,-3.0675,-3.0677,0,0,0,0,0,0,0,0,0,0,0,0,0,0,0,0,0,0,0,0,0,0,0,0,0,0,0,0,0,0,0,0,0,0,0,0,0,0,0,0,0,0,0,0,0,0,0,0,0,0,0,0,0,0,0,0,0,0,0,0,0,0,0,0,0,0,0,0,0]}],[{"header":{"parameterUnit":"kt","parameterCategory":2,"dx":1,"dy":1,"la1":30.253999710083008,"la2":30.299108505249023,"lo1":-89.0895004272461,"lo2":-89.04439544677734,"nx":28,"ny":28,"refTime":"2022-10-20T21:00:00:Z","depth":0,"parameterNumber":2,"parameterNumberName":"V-component_of_WINDS"},"data":[7.0728,7.0745,7.0713,7.0717,7.0689,7.0685,7.0673,7.0655,7.0631,7.0622,7.0611,7.058,7.0543,7.052,7.0505,7.0491,7.0485,7.0514,7.0491,7.0394,7.0378,7.0363,7.0355,7.0514,7.0514,7.0595,7.0596,7.0597,7.0657,7.063,7.0623,7.0595,7.0588,7.0541,7.0515,7.0511,7.0509,7.0481,7.0469,7.0458,7.0445,7.0397,7.0378,7.0382,7.0357,7.0379,7.0376,7.037,7.0266,7.0259,7.0399,7.0399,7.0399,7.0399,7.0399,7.0399,7.0517,7.0529,7.0493,7.0486,7.0463,7.0444,7.0449,7.0411,7.0403,7.0381,7.0345,7.0341,7.0305,7.0267,7.0246,7.0241,7.021,7.0223,7.0225,7.0228,7.0235,7.0116,7.0237,7.0236,7.0236,7.0235,7.0235,0,7.0404,7.0376,7.0368,7.0351,7.0343,7.0326,7.0305,7.0308,7.0237,7.0234,7.0226,7.0215,7.0195,7.0182,7.0157,7.0132,7.0079,7.0072,7.008,7.0095,7.0111,7.0098,6.9925,7.0068,7.0066,7.0065,7.0064,7.0064,7.0257,7.0276,7.0224,7.0222,7.0202,7.0202,7.0194,7.013,7.0125,7.0088,7.0102,7.009,7.0076,7.0068,7.0021,7.0005,6.9978,7.0035,6.9975,6.999,6.9973,6.9971,6.9971,7.0047,7.0049,7.0051,7.0052,0,7.0177,7.0124,7.0143,7.0089,7.0076,7.0098,7.0051,7.006,7.0022,7.0028,7.0026,6.9965,6.9958,6.9902,6.9883,6.9853,6.9885,6.9862,6.9895,6.9886,6.9928,6.9924,7.0084,7.01,6.9939,6.9941,6.9942,0,7.0029,7.0057,6.9975,6.9989,7.0017,6.9952,6.9981,6.9951,6.992,6.9925,6.9858,6.9864,6.9791,6.9788,6.9745,6.9761,6.9759,6.9735,6.9723,6.9739,6.9741,6.9731,6.9722,6.9699,6.9698,6.9697,6.9697,0,6.9905,6.9896,6.9918,6.9907,6.9851,6.9864,6.9841,6.9806,6.9799,6.9781,6.9775,6.976,6.9751,6.9739,6.9683,6.9643,6.9703,6.9638,6.9679,6.968,6.9692,6.9691,6.9851,6.9696,6.9696,6.9695,6.9695,0,6.9775,6.976,6.9803,6.9753,6.9753,6.9769,6.9748,6.9749,6.9717,6.969,6.9676,6.9623,6.9636,6.9574,6.959,6.9554,6.9548,6.9528,6.953,6.9523,6.9455,6.9547,6.9709,6.9721,6.9523,6.9521,6.952,0,6.9646,6.9675,6.9618,6.9661,6.9665,6.9587,6.9604,6.9578,6.9543,6.9542,6.9503,6.9502,6.9445,6.9436,6.9452,6.9411,6.9458,6.9404,6.9397,6.9398,6.9404,6.9553,6.9589,6.968,6.9501,6.9503,6.9504,0,6.9538,6.9471,6.9482,6.9465,6.9421,6.9426,6.9446,6.943,6.9431,6.9411,6.9423,6.9424,6.9378,6.9365,6.9321,6.934,6.9425,6.9289,6.9287,6.9312,6.9488,6.9521,6.9537,6.939,6.9392,6.9394,6.9489,0,6.9347,6.9355,6.9386,6.9354,6.9349,6.9373,6.9312,6.9315,6.9271,6.9234,6.9254,6.9218,6.9202,6.9207,6.9166,6.923,6.9209,6.9162,6.9094,6.9195,6.9224,6.9236,6.9055,6.9053,6.9051,6.9049,0,0,6.9234,6.9244,6.9181,6.9198,6.9189,6.9107,6.9138,6.912,6.9086,6.9081,6.9044,6.9038,6.9011,6.904,6.9067,6.9063,6.9067,6.9035,6.9148,6.916,6.917,6.9202,6.9216,6.9046,6.9045,6.9044,6.9044,0,6.915,6.9126,6.9158,6.9136,6.9102,6.9061,6.9069,6.9021,6.8998,6.9018,6.8949,6.8954,6.8953,6.8931,6.892,6.9031,6.8977,6.9032,6.9109,6.9131,6.9145,6.9157,6.9192,6.9206,6.9039,6.9039,6.9039,0,6.9029,6.8994,6.9003,6.8981,6.8958,6.8967,6.8881,6.8894,6.8899,6.8808,6.8829,6.8801,6.8769,6.8807,6.8822,6.8787,6.8897,6.8854,6.8864,6.8864,6.8881,6.8898,6.8913,6.8714,6.8713,6.8712,0,0,6.8965,6.8973,6.8914,6.8959,6.8949,6.8888,6.8887,6.8843,6.8816,6.8806,6.8768,6.8744,6.8741,6.8741,6.8736,6.8788,6.8774,6.8816,6.8832,6.8844,6.8851,6.8871,6.8888,6.8709,6.8709,6.8709,0,0,6.8934,6.8867,6.8828,6.8872,6.8849,6.8793,6.8822,6.8773,6.8762,6.8752,6.8679,6.867,6.8704,6.868,6.8642,6.871,6.8645,6.8653,6.8724,6.8743,6.8758,6.8761,6.8548,0,0,0,0,0,6.8816,6.8875,6.884,6.8839,6.8811,6.8813,6.8809,6.8749,6.8703,6.8728,6.8688,6.8632,6.8644,6.8608,6.8608,6.8649,6.8665,6.8673,6.868,6.8784,6.8804,6.8821,0,0,0,0,0,0,6.8814,6.8813,6.8838,6.8787,6.878,6.881,6.8719,6.8704,6.8699,6.8688,6.8641,6.863,6.8579,6.8605,6.8605,6.8646,6.8547,6.8668,6.8675,6.8681,6.8791,6.8807,6.8821,0,0,0,0,0,6.8813,6.8812,6.8782,6.8785,6.8779,6.8714,6.8716,6.8703,6.8698,6.8637,6.8625,6.8654,6.8582,6.8578,6.8605,6.8647,6.8547,6.8547,6.8673,6.8678,6.8682,6.8799,0,0,0,0,0,0,6.8812,6.8799,6.878,6.8776,6.8758,6.8711,6.8702,6.8703,6.8646,6.8635,6.8646,6.8638,6.8585,6.8581,6.8579,6.8651,6.8546,6.8547,6.8547,6.8677,6.8681,6.8684,0,0,0,0,0,0,6.88,6.8797,6.8778,6.8747,6.8738,6.8709,6.8701,6.8715,6.8647,6.8658,6.8649,6.8643,6.8589,6.8584,6.8582,6.8606,6.8546,6.8546,6.8547,6.8547,6.868,6.8683,0,0,0,0,0,0,6.8797,6.8795,6.8747,6.8741,6.8734,6.8683,6.872,6.8695,6.8621,6.8662,6.8613,6.8609,6.8593,6.8589,6.8584,6.861,6.8607,6.8546,6.8546,6.8546,6.8547,0,0,0,0,0,0,0,6.8795,6.8828,6.8804,6.8737,6.873,6.8738,6.8737,6.8736,6.862,6.8617,6.8614,6.8611,6.8544,6.8545,6.8545,6.8613,0,0,6.8546,6.8546,0,0,0,0,0,0,0,0,6.8828,6.8828,6.8804,6.8803,6.8802,6.8738,6.8737,6.8736,6.862,6.8617,6.8614,6.8612,6.8544,6.8545,6.8545,0,0,0,0,0,0,0,0,0,0,0,0,0,0,0,6.8804,6.8803,0,6.8738,6.8737,6.8736,6.8619,6.8617,6.8615,6.8613,6.8544,6.8545,6.8545,0,0,0,0,0,0,0,0,0,0,0,0,0,0,0,0,0,0,0,0,0,0,0,0,0,0,0,0,0,0,0,0,0,0,0,0,0,0,0,0,0,0,0,0,0,0,0,0,0,0,0,0,0,0,0,0,0,0,0,0,0,0,0,0,0,0,0,0,0]}]]]